Regional Weather Roundup
Issued by NWS

Home | Current Version | Previous Version | Graphics & Text | Print | Product List | Glossary On
Versions: 1 2 3 4 5 6 7 8 9 10 11 12 13 14 15 16 17 18 19 20 21 22 23 24 25 26 27 28 29 30 31 32 33 34 35 36 37 38 39 40 41 42 43 44 45 46 47 48 49 50
000
ASUS45 KPSR 220810
RWRAZ

ARIZONA HOURLY REGIONAL WEATHER ROUNDUP
NATIONAL WEATHER SERVICE PHOENIX AZ
100 AM MST TUE MAY 22 2018

NOTE: FAIR INDICATES FEW OR NO CLOUDS BELOW 12,000 FEET WITH NO
SIGNIFICANT WEATHER AND/OR OBSTRUCTIONS TO VISIBILITY.

AZZ001>003-036-220900-
NORTHWEST ARIZONA

CITY           SKY/WX    TMP DP  RH WIND       PRES   REMARKS
BULLHEAD CITY  PTCLDY    79  28  15 S6        29.67R
KINGMAN        CLOUDY    62  32  32 S5        29.81F
$$

AZZ004>008-015-016-018-220900-
NORTH CENTRAL ARIZONA

CITY           SKY/WX    TMP DP  RH WIND       PRES   REMARKS
GRAND CANYON   MOCLDY    37  15  40 CALM      29.99S
WILLIAMS       PTCLDY    48  25  40 SE6       29.96S
PRESCOTT       CLOUDY    61  29  29 SW5       29.90S
FLAGSTAFF      PTCLDY    36  17  46 CALM      30.01S
PAYSON         CLEAR     61  25  25 S3        29.93S
PAGE           CLOUDY    69  24  18 SW7       29.84F
$$

AZZ009>014-017-220900-
NORTHEAST ARIZONA

CITY           SKY/WX    TMP DP  RH WIND       PRES   REMARKS
WINSLOW        MOCLDY    57  17  21 CALM      29.92S
SAINT JOHNS    CLEAR     52   9  17 SW6       29.96S
WINDOW ROCK    CLEAR     47  33  58 CALM      30.02F
SHOW LOW       CLEAR     50  16  25 S8        30.02S
$$

AZZ540-542>544-546-548-220900-
GREATER PHOENIX AREA

CITY           SKY/WX    TMP DP  RH WIND       PRES   REMARKS
PHOENIX        PTCLDY    78  36  21 E3        29.71R
BUCKEYE        PTCLDY    72  36  26 S6        29.74R
DEER VALLEY    CLEAR     74  34  23 W10       29.73S
SCOTTSDALE     CLEAR     74  37  26 CALM      29.75R
MESA-GATEWAY   CLEAR     76  26  15 S12       29.75S
$$

AZZ539-553-220900-
SOUTHWEST MARICOPA COUNTY AND PINAL COUNTY

CITY           SKY/WX    TMP DP  RH WIND       PRES   REMARKS
CASA GRANDE    CLEAR     73  30  20 E8        29.77S
GILA BEND      FAIR      74  37  26 SW7       29.72S
$$

AZZ503-504-507>509-220900-
SOUTHEAST ARIZONA

CITY           SKY/WX    TMP DP  RH WIND       PRES   REMARKS
TUCSON         CLEAR     73  25  16 CALM      29.84S
DAVIS-MONTHAN  CLEAR     68  24  19 SW7       29.82S
NOGALES        CLEAR     66  30  26 SE8       29.90F
SIERRA VISTA   CLEAR     66  23  19 S9        29.94F
DOUGLAS        CLEAR     64  33  31 W9        29.93R
SAFFORD        CLEAR     71  30  21 NW12      29.81
$$

AZZ532-220900-
SOUTHWEST ARIZONA

CITY           SKY/WX    TMP DP  RH WIND       PRES   REMARKS
YUMA           CLEAR     71  42  35 NW6       29.71R
$$

CAZ041-043-047-048-061-525>527-560>570-220900-
SOUTHERN CALIFORNIA

CITY           SKY/WX    TMP DP  RH WIND       PRES   REMARKS
DOWNTOWN L.A.  MOCLDY    60  52  74 CALM      29.89S
L.A. AIRPORT   CLOUDY    60  53  77 SW7       29.89F
SAN DIEGO      CLOUDY    61  48  62 SW6       29.92F
BURBANK        CLOUDY    58  52  80 S3        29.88F
ONTARIO        MOCLDY    58  51  78 W9        29.88F
RIVERSIDE      CLOUDY    58  52  80 W6        29.88F
PALM SPRINGS   CLEAR     71  43  36 NW20      29.71F
EL CENTRO NAS  CLEAR     68  39  34 W26G37    29.73S
IMPERIAL       CLEAR     66  41  40 W15       29.70S
BLYTHE         CLEAR     75  48  38 SW13      29.67S
NEEDLES        CLEAR     79  34  19 W6        29.67S
$$

NVZ020-UTZ003-220900-
SOUTHERN NEVADA-UTAH

CITY           SKY/WX    TMP DP  RH WIND       PRES   REMARKS
LAS VEGAS      MOCLDY    75  39  27 N7        29.74R
SALT LAKE CITY MOCLDY    62  49  62 N7        29.90S
$$

NMZ009-TXZ055-220900-
NEW MEXICO-WEST TEXAS

CITY           SKY/WX    TMP DP  RH WIND       PRES   REMARKS
ALBUQUERQUE    CLOUDY    56  48  74 W8        30.03R
EL PASO        MOCLDY    71  53  52 CALM      29.93R
$$


........................KEY........................
SKY/WX - SKY CONDITION/WEATHER
TMP    - TEMPERATURE IN FAHRENHEIT
DP     - DEW POINT IN FAHRENHEIT
RH     - RELATIVE HUMIDITY IN PERCENT
WIND   - DIRECTION AND SPEED IN MILES PER HOUR (MPH)
VRB    - VARIABLE WIND DIRECTION
PRES   - MEAN SEA LEVEL PRESSURE IN INCHES OF MERCURY
         F - FALLING PRESSURE   R - RISING PRESSURE
         S - STEADY PRESSURE
VSB    - VISIBILITY IN MILES
HX     - HEAT INDEX IN FAHRENHEIT
WCI    - WIND CHILL INDEX IN FAHRENHEIT
TC     - TEMPERATURE IN CELSIUS WHICH IS ALSO KNOWN AS
         TEMPERATURE IN CENTIGRADE
AFB    - AIR FORCE BASE
         LUKE AFB IS LUKE AIR FORCE BASE
         DAVIS-MONTHAN IS DAVIS-MONTHAN AIR FORCE BASE
NAS    - NAVAL AIR STATION
         EL CENTRO NAS IS EL CENTRO NAVAL AIR STATION
N/A    - NOT AVAILABLE




USA.gov is the U.S. government's official web portal to all federal, state and local government web resources and services.